Location: Bettgenhausen
(50.6463°N, 7.5681°E)
Time: 10:29:33
(UTC+00:00)

CZ-2C R/B - Pass Details

Date: 27 February 2020
Orbit: 784 x 871 km, 98.3° (Epoch: 04 April)

Event Time Altitude Azimuth Distance (km) Brightness Sun altitude
Rises 18:52:56 0° 23° (NNE) 3,434 5.7 -17.6°
Reaches altitude 10° 18:55:50 10° 37° (NE) 2,479 4.9 -18.0°
Enters shadow 18:57:06 15° 47° (NE) 2,127 4.4 -18.2°
